Weather in Kanino

Russia / Ryazan Oblast     53°56′24″N   40°29′26″E
temp.,
°C
wind,
m/s
gust,
m/s
humid.,
%
clouds,
%
prec.,
mm/h
press.,
hPa
HPBL,
m
24 january, mon
mon2400:00−14nne36100100 0.0 103369
03:00−15ne3710089 0.0 103484
06:00−14ne499881 0.0 1034123
09:00−14nne4109983 0.0 1035140
12:00−9ne499595 0.0 1034236
15:00−7ne479581 0.1 1033284
18:00−11ne389870 0.0 1033112
21:00−14ene359973 0.0 103359
25 january, tue
tue2500:00−17e229945 0.0 103216
03:00−20e2210054 0.0 10319
06:00−20ese2210058 0.0 102914
09:00−20ese229942 0.0 102828
12:00−12sse239262 0.0 1025147
15:00−11sse239465 0.0 1023138
18:00−14s2298100 0.0 102233
21:00−12ssw2596100 0.1 1020127
26 january, wed
wed2600:00−11sw2696100 0.3 1018236
03:00−11sw2696100 0.4 1017187
06:00−11sw2595100 0.1 1017191
09:00−12sw3695100 0.1 1017134
12:00−11sw469192 0.0 1017227
15:00−10sw369394 0.0 1017235
18:00−10ssw369679 0.1 1018156
21:00−11sw359777 0.2 101887
27 january, thu
thu2700:00−15sw2310095 0.1 101833
03:00−16wsw22100100 0.1 101933
06:00−18sw22100100 0.1 101918
09:00−16sw239887 0.1 101972
12:00−11ssw349491 0.1 1018197
15:00−10ssw369469 0.1 1018236
18:00−14s3798100 0.0 101897
21:00−13s3997100 0.0 1017156
28 january, fri
fri2800:00−12s41095100 0.0 1016209
03:00−14s4119551 0.0 1015189
06:00−14s4129662 0.0 1014200
09:00−13s51494100 0.0 1013289
12:00−9sse71590100 0.0 1011433
15:00−7sse71588100 0.0 1008500
18:00−7sse71595100 0.6 1007590
21:00−6sse6129499 1.7 1005495